Location: Pardubice
(50.0333°N, 15.7833°E)
Time: 20:38:30
(UTC+02:00)

ISS - Visible Passes

Search period start: 23 May 2018 00:00
Search period end: 02 June 2018 00:00
Orbit: 402 x 407 km, 51.6° (Epoch: 24 May)

Date Brightness Start Highest point End Pass type
(mag) Time Alt. Az. Time Alt. Az. Time Alt. Az.
23 May -3.4 00:38:26 10° W 00:41:42 63° N 00:44:57 10° E visible
23 May -4.0 02:15:00 10° WNW 02:18:15 69° SSW 02:21:30 10° ESE visible
23 May -2.3 03:52:07 10° W 03:54:18 17° SW 03:56:29 10° S visible
23 May -3.8 22:09:43 10° SW 22:12:57 59° SSE 22:16:10 10° ENE visible
23 May -3.4 23:46:11 10° W 23:49:28 64° N 23:52:43 10° E visible
24 May -3.9 01:22:48 10° WNW 01:26:05 88° N 01:27:54 24° ESE visible
24 May -1.8 02:59:31 10° W 03:00:18 15° W 03:00:18 15° W visible
24 May -3.6 22:53:57 10° W 22:57:13 73° N 23:00:29 10° ENE visible
25 May -3.7 00:30:35 10° WNW 00:33:52 72° N 00:35:43 23° E visible
25 May -2.0 02:07:10 10° W 02:08:18 19° W 02:08:18 19° W visible
25 May -3.8 22:01:42 10° WSW 22:04:59 89° NNW 22:08:16 10° ENE visible
25 May -3.4 23:38:21 10° W 23:41:36 64° N 23:44:37 12° E visible
26 May -3.1 01:14:53 10° WNW 01:17:13 40° W 01:17:13 40° W visible
26 May -3.4 22:46:04 10° W 22:49:20 63° N 22:52:35 10° E visible
27 May -4.0 00:22:39 10° WNW 00:25:56 84° SSW 00:26:24 63° ESE visible
27 May -3.5 21:53:47 10° W 21:57:03 69° N 22:00:19 10° ENE visible
27 May -3.7 23:30:25 10° WNW 23:33:41 77° N 23:35:40 22° E visible
28 May -1.9 01:07:01 10° W 01:08:17 20° W 01:08:17 20° W visible
28 May -3.5 22:38:08 10° WNW 22:41:24 66° N 22:44:40 10° E visible
29 May -3.6 00:14:40 10° WNW 00:17:37 50° SW 00:17:37 50° SW visible
29 May -3.3 21:45:50 10° W 21:49:05 63° N 21:52:21 10° E visible
29 May -4.0 23:22:23 10° WNW 23:25:40 76° SSW 23:26:58 33° ESE visible
30 May -1.2 00:59:21 10° W 00:59:35 11° W 00:59:35 11° W visible
30 May -3.8 22:30:07 10° WNW 22:33:23 83° N 22:36:21 12° ESE visible
31 May -2.5 00:06:47 10° W 00:08:59 27° WSW 00:08:59 27° WSW visible
31 May -3.5 21:37:49 10° WNW 21:41:05 69° N 21:44:21 10° E visible
31 May -3.4 23:14:22 10° WNW 23:17:30 45° SSW 23:18:23 35° SSE visible
01 Jun -3.8 22:22:01 10° WNW 22:25:17 67° SSW 22:27:49 15° ESE visible
